Volver al catálogo

COSMOS 2251 DEB

ActivoLEO
NORAD 36539·DEBRIS·🇷🇺 Russia

Lanzado Jun 16, 1993 desde Plesetsk Cosmodrome

Loading…

Próximos Pases (próximas 24 horas)

TLE

ActualizadoSource: Space-Track

Época: Sep 14, 2026, 08:55 UTC

1 36539U 93036BCZ 26257.37158113  .00001863  00000-0  38581-3 0  9994
2 36539  74.0194 248.6486 0028739 317.2117  42.6812 14.60751923879704

Sigue COSMOS 2251 DEB en tiempo real con AllMySat

Download on the App Store